TimeCDT,TemperatureF,Dew PointF,Humidity,Sea Level PressureIn,VisibilityMPH,Wind Direction,Wind SpeedMPH,Gust SpeedMPH,PrecipitationIn,Events,Conditions,WindDirDegrees,DateUTC
12:15 AM,57.6,51.1,79,30.22,10.0,Calm,Calm,-,N/A,,Clear,0,2013-09-13 05:15:00
12:35 AM,58.5,51.4,77,30.21,10.0,Calm,Calm,-,N/A,,Clear,0,2013-09-13 05:35:00
12:55 AM,56.3,50.9,82,30.22,10.0,Calm,Calm,-,N/A,,Clear,0,2013-09-13 05:55:00
1:15 AM,55.4,50.2,83,30.21,10.0,Calm,Calm,-,N/A,,Clear,0,2013-09-13 06:15:00
1:35 AM,54.5,50.0,85,30.22,10.0,Calm,Calm,-,N/A,,Clear,0,2013-09-13 06:35:00
1:55 AM,54.0,50.0,86,30.22,10.0,Calm,Calm,-,N/A,,Clear,0,2013-09-13 06:55:00
2:15 AM,53.8,50.4,88,30.22,10.0,Calm,Calm,-,N/A,,Clear,0,2013-09-13 07:15:00
2:35 AM,53.4,50.4,89,30.22,10.0,Calm,Calm,-,N/A,,Clear,0,2013-09-13 07:35:00
2:55 AM,53.1,50.0,89,30.22,10.0,Calm,Calm,-,N/A,,Clear,0,2013-09-13 07:55:00
3:15 AM,53.6,50.9,91,30.22,10.0,NW,4.6,-,N/A,,Clear,310,2013-09-13 08:15:00
3:35 AM,52.7,50.4,92,30.22,10.0,Calm,Calm,-,N/A,,Clear,0,2013-09-13 08:35:00
3:55 AM,50.2,48.4,94,30.21,10.0,Calm,Calm,-,N/A,,Clear,0,2013-09-13 08:55:00
4:15 AM,52.7,50.4,92,30.22,10.0,Calm,Calm,-,N/A,,Clear,0,2013-09-13 09:15:00
4:35 AM,51.6,49.6,93,30.22,10.0,Calm,Calm,-,N/A,,Clear,0,2013-09-13 09:35:00
4:55 AM,51.8,50.2,94,30.22,10.0,Calm,Calm,-,N/A,,Clear,0,2013-09-13 09:55:00
5:15 AM,51.1,49.5,94,30.22,10.0,Calm,Calm,-,N/A,,Clear,0,2013-09-13 10:15:00
5:35 AM,49.6,48.2,95,30.22,10.0,Calm,Calm,-,N/A,,Clear,0,2013-09-13 10:35:00
5:55 AM,49.8,48.2,94,30.22,10.0,Calm,Calm,-,N/A,,Clear,0,2013-09-13 10:55:00
6:15 AM,50.0,48.6,95,30.22,10.0,Calm,Calm,-,N/A,,Clear,0,2013-09-13 11:15:00
6:35 AM,49.8,48.9,97,30.23,10.0,Calm,Calm,-,N/A,,Clear,0,2013-09-13 11:35:00
6:55 AM,48.6,47.8,97,30.23,10.0,Calm,Calm,-,N/A,,Clear,0,2013-09-13 11:55:00
7:15 AM,48.7,47.8,97,30.23,10.0,Calm,Calm,-,N/A,,Clear,0,2013-09-13 12:15:00
7:35 AM,50.0,48.9,96,30.23,10.0,Calm,Calm,-,N/A,,Clear,0,2013-09-13 12:35:00
7:55 AM,50.5,49.6,97,30.25,10.0,Calm,Calm,-,N/A,,Clear,0,2013-09-13 12:55:00
8:15 AM,53.2,50.9,92,30.24,10.0,Calm,Calm,-,N/A,,Clear,0,2013-09-13 13:15:00
8:35 AM,56.7,52.5,86,30.25,10.0,Calm,Calm,-,N/A,,Clear,0,2013-09-13 13:35:00
8:55 AM,60.1,52.0,75,30.24,10.0,ENE,3.5,-,N/A,,Clear,70,2013-09-13 13:55:00
9:15 AM,62.4,51.1,66,30.25,10.0,East,3.5,-,N/A,,Clear,90,2013-09-13 14:15:00
9:35 AM,64.0,50.5,61,30.25,10.0,ESE,5.8,-,N/A,,Clear,110,2013-09-13 14:35:00
9:55 AM,65.1,50.7,60,30.25,10.0,ESE,4.6,-,N/A,,Clear,120,2013-09-13 14:55:00
10:15 AM,66.9,51.6,58,30.25,10.0,SE,5.8,-,N/A,,Clear,130,2013-09-13 15:15:00
10:35 AM,68.2,51.1,54,30.25,10.0,SE,3.5,-,N/A,,Clear,140,2013-09-13 15:35:00
10:55 AM,69.6,50.0,50,30.25,10.0,East,5.8,-,N/A,,Clear,90,2013-09-13 15:55:00
11:15 AM,70.9,49.8,47,30.24,10.0,ESE,4.6,-,N/A,,Clear,110,2013-09-13 16:15:00
11:35 AM,71.8,48.6,44,30.24,10.0,SSE,5.8,-,N/A,,Clear,160,2013-09-13 16:35:00
11:55 AM,72.9,47.7,41,30.22,10.0,ESE,5.8,-,N/A,,Clear,110,2013-09-13 16:55:00
12:15 PM,72.5,47.5,41,30.22,10.0,Calm,Calm,-,N/A,,Clear,0,2013-09-13 17:15:00
12:35 PM,72.7,47.7,41,30.21,10.0,Calm,Calm,-,N/A,,Clear,0,2013-09-13 17:35:00
12:55 PM,74.1,48.4,40,30.20,10.0,ENE,4.6,-,N/A,,Clear,60,2013-09-13 17:55:00
1:15 PM,74.1,48.2,40,30.19,10.0,Calm,Calm,-,N/A,,Clear,0,2013-09-13 18:15:00
1:35 PM,75.0,48.6,39,30.19,10.0,SSE,3.5,-,N/A,,Clear,150,2013-09-13 18:35:00
1:55 PM,75.7,49.1,39,30.17,10.0,East,6.9,-,N/A,,Clear,80,2013-09-13 18:55:00
2:15 PM,75.0,49.1,40,30.16,10.0,SSE,3.5,-,N/A,,Clear,150,2013-09-13 19:15:00
2:35 PM,75.0,48.9,40,30.16,10.0,South,5.8,-,N/A,,Clear,180,2013-09-13 19:35:00
2:55 PM,75.9,49.3,39,30.16,10.0,ENE,8.1,-,N/A,,Clear,60,2013-09-13 19:55:00
3:15 PM,76.5,49.3,38,30.15,10.0,NE,5.8,-,N/A,,Clear,40,2013-09-13 20:15:00
3:35 PM,76.8,49.3,38,30.14,10.0,ENE,9.2,-,N/A,,Clear,70,2013-09-13 20:35:00
3:55 PM,77.2,49.3,37,30.13,10.0,North,4.6,-,N/A,,Clear,10,2013-09-13 20:55:00
4:15 PM,75.9,49.3,39,30.13,10.0,Calm,Calm,-,N/A,,Clear,0,2013-09-13 21:15:00
4:35 PM,76.3,48.6,38,30.13,10.0,Calm,Calm,-,N/A,,Clear,0,2013-09-13 21:35:00
4:55 PM,76.6,48.9,38,30.12,10.0,SE,4.6,-,N/A,,Clear,130,2013-09-13 21:55:00
5:15 PM,75.6,49.1,39,30.12,10.0,SE,5.8,-,N/A,,Clear,130,2013-09-13 22:15:00
5:35 PM,75.6,49.8,40,30.11,10.0,East,5.8,-,N/A,,Clear,100,2013-09-13 22:35:00
5:55 PM,75.0,49.8,41,30.11,10.0,East,5.8,-,N/A,,Clear,90,2013-09-13 22:55:00
6:15 PM,73.6,50.4,44,30.11,10.0,East,8.1,-,N/A,,Clear,80,2013-09-13 23:15:00
6:35 PM,72.9,50.2,45,30.10,10.0,ESE,6.9,-,N/A,,Clear,110,2013-09-13 23:35:00
6:55 PM,71.4,50.2,47,30.09,10.0,East,5.8,-,N/A,,Clear,90,2013-09-13 23:55:00
7:15 PM,70.7,50.9,49,30.09,10.0,East,5.8,-,N/A,,Clear,100,2013-09-14 00:15:00
7:35 PM,68.9,51.4,54,30.09,10.0,ESE,5.8,-,N/A,,Clear,110,2013-09-14 00:35:00
7:55 PM,67.6,51.8,57,30.09,10.0,ESE,4.6,-,N/A,,Clear,110,2013-09-14 00:55:00
8:15 PM,67.1,52.0,58,30.10,10.0,East,6.9,-,N/A,,Clear,100,2013-09-14 01:15:00
8:35 PM,66.2,51.6,59,30.10,7.0,East,6.9,-,N/A,,Clear,100,2013-09-14 01:35:00
8:55 PM,64.6,51.4,62,30.10,5.0,ESE,5.8,-,N/A,,Haze,110,2013-09-14 01:55:00
9:15 PM,63.9,51.6,64,30.10,4.0,East,4.6,-,N/A,,Haze,100,2013-09-14 02:15:00
9:35 PM,61.7,51.6,69,30.10,3.0,ESE,5.8,-,N/A,,Haze,120,2013-09-14 02:35:00
9:55 PM,63.0,51.1,65,30.10,3.0,ESE,6.9,-,N/A,,Haze,120,2013-09-14 02:55:00
10:15 PM,61.2,50.9,69,30.09,5.0,SE,5.8,-,N/A,,Haze,130,2013-09-14 03:15:00
10:35 PM,59.7,50.9,73,30.09,3.0,SE,4.6,-,N/A,,Haze,130,2013-09-14 03:35:00
10:55 PM,60.1,50.5,71,30.09,5.0,SE,4.6,-,N/A,,Haze,130,2013-09-14 03:55:00
11:15 PM,60.3,50.9,71,30.09,2.0,ESE,4.6,-,N/A,,Haze,120,2013-09-14 04:15:00
11:35 PM,59.5,51.1,74,30.08,2.0,ESE,3.5,-,N/A,,Haze,120,2013-09-14 04:35:00
11:55 PM,60.8,52.0,73,30.08,1.5,Calm,Calm,-,N/A,,Haze,0,2013-09-14 04:55:00